Location: Gibsondale
(40.9931°N, 80.2478°W)
Time: 19:30:13
(UTC+00:00)

Meteor 2-10 Rocket - Pass Details

Date: 29 October 2020
Orbit: 734 x 885 km, 81.2° (Epoch: 03 December)

Event Time Altitude Azimuth Distance (km) Brightness Sun altitude
Rises 22:50:06 0° 160° (SSE) 3,307 6.7 -6.3°
Reaches altitude 10° 22:52:47 10° 149° (SSE) 2,355 5.9 -6.8°
Maximum altitude 22:57:17 29° 91° (E) 1,386 4.3 -7.7°
Drops below altitude 10° 23:01:41 10° 32° (NNE) 2,293 5.6 -8.5°
Sets 23:04:14 0° 22° (NNE) 3,205 6.4 -9.0°
